This is the latest recevied weather packets stored in our database for station/object EA3KZ-1. If no packets are shown the sender has not sent any weather packets the latest 10 day(s).
| Time | Temp. | Humidity | Pressure | Rain* | Wind** | Luminosity | Snow |
|---|---|---|---|---|---|---|---|
| 1777833631 | 14.44° C | 85% | 1010.2 hPa | 0 mm | - | - | - |
| 1777833028 | 14.44° C | 83% | 1010.1 hPa | 0 mm | - | - | - |
| 1777832426 | 14.44° C | 81% | 1010.1 hPa | 0 mm | - | - | - |
| 1777831823 | 15° C | 80% | 1010.1 hPa | 0 mm | - | - | - |
| 1777831221 | 15° C | 80% | 1010 hPa | 0 mm | - | - | - |
| 1777830617 | 15° C | 80% | 1010.1 hPa | 0 mm | - | - | - |
| 1777830015 | 15° C | 78% | 1009.8 hPa | 0 mm | - | - | - |
| 1777829473 | 15° C | 75% | 1009.8 hPa | 0 mm | - | - | - |
| 1777828870 | 15° C | 74% | 1009.8 hPa | 0 mm | - | - | - |
| 1777828267 | 15° C | 74% | 1009.8 hPa | 0 mm | - | - | - |
| 1777827665 | 15° C | 76% | 1009.8 hPa | 0 mm | - | - | - |
| 1777827062 | 15° C | 79% | 1009.8 hPa | 0 mm | - | - | - |
| 1777826460 | 15° C | 82% | 1009.8 hPa | 0 mm | - | - | - |
| 1777825857 | 15° C | 83% | 1009.7 hPa | 0 mm | - | - | - |
| 1777825255 | 15° C | 83% | 1009.8 hPa | 0 mm | - | - | - |
| 1777824652 | 15° C | 85% | 1009.8 hPa | 0 mm | - | - | - |
| 1777824049 | 15.56° C | 85% | 1010 hPa | 0 mm | - | - | - |
| 1777822844 | 16.67° C | 79% | 1009.8 hPa | 0 mm | - | - | - |
| 1777822242 | 16.67° C | 76% | 1009.8 hPa | 0 mm | - | - | - |
| 1777821639 | 16.67° C | 75% | 1009.7 hPa | 0 mm | - | - | - |
| 1777821036 | 16.67° C | 74% | 1009.7 hPa | 0 mm | - | - | - |
| 1777820434 | 16.67° C | 73% | 1009.8 hPa | 0 mm | - | - | - |
| 1777819831 | 17.22° C | 70% | 1009.8 hPa | 0 mm | - | - | - |
| 1777819228 | 16.67° C | 71% | 1009.8 hPa | 0 mm | - | - | - |
| 1777818626 | 17.22° C | 69% | 1010.1 hPa | 0 mm | - | - | - |
* Rain latest hour (hover to see other rain measurements)
** Current wind speed in m/s (hover to see current wind gust speed)